Date,TemperatureHighF,TemperatureAvgF,TemperatureLowF,DewpointHighF,DewpointAvgF,DewpointLowF,HumidityHigh,HumidityAvg,HumidityLow,PressureMaxIn,PressureMinIn,WindSpeedMaxMPH,WindSpeedAvgMPH,GustSpeedMaxMPH,PrecipitationSumIn
2013-9-1,79.4,72.0,69.0,73.8,70.2,68.1,99,94,75,29.85,29.70,3,0,7,0.19
2013-9-2,69.6,66.8,62.8,68.3,66.0,62.2,99,97,93,29.84,29.68,6,2,10,4.29
2013-9-3,79.2,70.3,62.7,72.3,67.7,61.2,99,92,72,29.71,29.64,7,1,10,0.01
2013-9-4,79.6,67.2,55.6,62.7,59.0,55.3,99,77,45,29.84,29.68,6,1,9,0.00
2013-9-5,69.0,58.6,45.7,60.2,51.5,43.0,97,80,42,30.08,29.80,4,0,6,0.37
2013-9-6,67.0,54.1,39.9,51.3,44.4,38.8,98,74,39,30.18,29.99,7,1,9,0.00
2013-9-7,76.7,60.0,44.9,60.3,52.8,44.1,98,80,49,29.99,29.74,7,1,10,0.01
2013-9-8,65.8,58.0,44.0,59.7,50.1,39.8,97,77,45,30.01,29.65,5,1,9,0.17
2013-9-9,67.2,53.3,36.9,53.3,45.3,36.0,98,77,47,30.15,30.01,8,2,12,0.00
2013-9-10,65.8,59.1,47.7,62.8,56.4,46.6,97,91,81,30.06,29.97,4,1,5,0.00
2013-9-11,90.9,75.3,62.8,78.9,69.2,61.9,99,83,57,29.99,29.82,10,2,19,0.14
2013-9-12,71.1,68.8,67.5,70.1,67.9,66.9,98,97,94,29.72,29.60,10,3,12,1.19
2013-9-13,67.6,64.0,55.6,66.9,63.3,55.0,99,98,96,29.66,29.53,4,1,7,1.97
2013-9-14,71.1,58.8,48.5,60.6,54.1,47.5,99,86,55,29.97,29.66,4,1,8,0.01
2013-9-15,68.5,54.9,41.7,55.8,49.5,41.2,99,84,51,30.08,29.95,7,2,10,0.00
2013-9-16,65.3,54.7,40.9,59.0,49.6,35.8,98,84,58,30.21,29.91,4,1,7,0.03
2013-9-17,67.1,49.7,33.5,48.9,41.1,32.5,98,76,43,30.36,30.22,3,1,6,0.00
2013-9-18,71.1,53.5,37.1,53.0,44.7,36.6,98,77,37,30.25,30.05,7,1,9,0.00
2013-9-19,75.6,57.1,41.6,57.8,49.1,40.8,99,78,44,30.08,29.97,6,1,8,0.00
2013-9-20,77.0,58.5,41.9,59.0,51.0,41.4,98,80,46,30.06,29.97,4,1,6,0.00
2013-9-21,65.3,59.5,51.4,62.6,57.4,50.9,99,93,80,29.98,29.70,10,4,13,0.01
2013-9-22,72.8,63.4,47.8,64.6,58.2,44.7,97,84,54,29.70,29.53,10,4,13,0.32
2013-9-23,58.4,50.8,44.5,45.8,42.1,38.7,93,73,57,29.89,29.70,5,2,13,0.00
2013-9-24,58.3,49.7,41.1,46.2,42.3,39.4,96,76,61,29.88,29.79,4,1,9,0.00
2013-9-25,63.6,52.9,41.0,51.2,46.5,39.6,97,80,58,29.93,29.82,3,0,7,0.00
2013-9-26,65.6,54.4,42.7,53.3,48.2,41.4,97,80,60,30.09,29.93,4,1,7,0.00
2013-9-27,72.0,59.4,50.1,56.6,52.5,49.0,98,79,52,30.20,30.09,3,0,5,0.00
2013-9-28,73.6,57.5,45.4,56.9,50.4,44.6,99,81,43,30.30,30.20,5,1,7,0.00
2013-9-29,67.9,52.1,42.3,55.8,46.5,41.8,98,84,49,30.22,30.08,5,1,6,0.01
2013-9-30,68.8,51.1,41.6,54.9,46.9,40.9,98,88,45,30.09,29.93,3,0,6,0.00